Location: Saint Mary
(48.7436°N, 113.4291°W)
Time: 12:41:09
(UTC+00:00)

ISS - Visible Passes

Search period start: 26 January 2022 00:00
Search period end: 05 February 2022 00:00
Orbit: 413 x 422 km, 51.6° (Epoch: 26 January)

Date Brightness Start Highest point End Pass type
(mag) Time Alt. Az. Time Alt. Az. Time Alt. Az.
26 Jan -3.4 01:47:48 10° W 01:51:04 54° N 01:52:23 31° NE visible
26 Jan -0.5 03:24:49 10° WNW 03:25:19 13° WNW 03:25:19 13° WNW visible
27 Jan -3.6 00:59:38 10° W 01:02:56 63° NNW 01:06:16 10° ENE visible
27 Jan -2.7 02:36:42 10° WNW 02:39:12 40° NW 02:39:12 40° NW visible
28 Jan -3.3 01:48:30 10° WNW 01:51:47 49° N 01:53:03 30° ENE visible
28 Jan -0.6 03:25:23 10° WNW 03:25:59 14° WNW 03:25:59 14° WNW visible
29 Jan -3.3 01:00:14 10° W 01:03:30 50° N 01:06:46 10° ENE visible
29 Jan -3.0 02:37:11 10° WNW 02:39:48 49° NW 02:39:48 49° NW visible
30 Jan -3.6 01:48:56 10° WNW 01:52:13 57° N 01:53:38 30° ENE visible
30 Jan -0.7 03:25:45 10° WNW 03:26:33 16° W 03:26:33 16° W visible
31 Jan -3.4 01:00:35 10° WNW 01:03:52 51° N 01:07:09 10° E visible
31 Jan -3.4 02:37:24 10° WNW 02:40:23 62° WSW 02:40:23 62° WSW visible
01 Feb -3.9 01:49:02 10° WNW 01:52:23 87° NNE 01:54:16 24° ESE visible
01 Feb -0.8 03:26:11 10° W 03:27:11 16° WSW 03:27:11 16° WSW visible
02 Feb -2.4 02:37:31 10° W 02:40:34 33° SW 02:41:07 31° SSW visible
03 Feb -3.0 01:48:57 10° WNW 01:52:12 49° SSW 01:55:09 12° SE visible
04 Feb -0.9 02:37:57 10° W 02:40:01 15° SW 02:42:04 10° S visible
